Погода в Владимире

Хотите узнать прогноз погоды в Владимире? Тогда Вам сюда: Погода в Владимире

Поиск расширенной информации на нашем сайте:

Полезная информация:

Новости сайта



02.01.2020
Опубликован Долгосрочный прогноз погоды по городам России и ближнего зарубежья на январь 2020 года.
Карты: Прогноз на январь и февраль 2020 года, Сравнение прогнозируемой аномалии приземной температуры воздуха на январь 2020 года по разным моделям.




Погода в Владимире - сегодня

Время (UTC), дата Ветер
(°,м/с) 
Видим.   Явления Облачность Т
(°С)
Тd
(°С)
f(%) Тe
(°С)
Pmin
(гПа)
dP
(гПа)
Po
(мм)
O2
(г/м3)
Тmin Tmax R s Состояние
почвы
12 16.04.21 070 (В) 5-10{11}  10 км    8/0 верхняя 
[Ci fib]
+16.3 -0.2 32 +16  1021.1  751  285           
15 16.04.21 070 (В) 4{10}  10 км    9/0 верхняя 
[Ci fib]
+14.8 +0 36 +15  1021.2  751  287    +16.5       
18 16.04.21 060 (СВ) 4-10{10}  10 км    9/0 верхняя 
[Ci fib]
+11.5 -0.9 42 +11  1022.5  751  291           
21 16.04.21 070 (В) 3{10}  10 км    9/0 верхняя 
[Ci fib]
+8.7 -4.9 38 +8  1023.2  0.5  752  294           
00 17.04.21 060 (СВ) 10 км    9/0 верхняя 
[Ci fib]
+6.8 -6.7 37 +7  1023.8  0.3  752  296           
03 17.04.21 020 (С) 10 км    9/0 верхняя 
[Ci fib]
+3.7 -5.7 50 +2  1024.3  0.3  752  300  +3.5        мокрый или
старый снег
10-40% 
06 17.04.21 070 (В) 10 км    6/0 верхняя 
[Ci fib]
+10.3 -5.2 33 +9  1024  0.2  752  293           
09 17.04.21 060 (СВ) 4{11}  10 км    8/0 средняя, верхняя 
[Ac trans|Ci fib]
+16.5 -2.6 27 +17  1023  -0.5  752  286           
12 17.04.21 060 (СВ) 5-10{11}  10 км    8/0 средняя, верхняя 
[Ac trans|Ci fib]
+17.2 -5.9 20 +17  1022.3  -0.7  751  285           
15 17.04.21 070 (В) 3{12}  10 км    6/0 верхняя 
[Ci fib]
+15.1 -9.8 17 +15  1021.7  -0.7  751  288    +17.4       
18 17.04.21 050 (СВ) 10 км    4/0 верхняя 
[Ci fib]
+9.5 -6.9 31 +9  1022.3  0.2  751  293           
21 17.04.21 070 (В) 10 км    4/0 верхняя 
[Ci fib]
+7.9 -7.7 32 +8  1022.6  0.2  751  295           
00 18.04.21 040 (СВ) 10 км    4/0 верхняя 
[Ci fib]
+3.4 -6.7 48 +3  1022.5  -0.5  751  300           
03 18.04.21 050 (СВ) 10 км    ясно 
+2.7 -5.9 53 +2  1022.3  -0.2  751  300  +1.1        влажная 
06 18.04.21 060 (СВ) 10 км    3/0 верхняя 
[Ci fib]
+10.8 -6.8 28 +10  1021.5  -0.2  751  292           
09 18.04.21 080 (В) 3{11}  10 км    4/0 средняя, верхняя 
[Ac trans|Ci fib]
+14.1 -9 19 +14  1021.4  0.1  751  288           
12 18.04.21 070 (В) 3{10}  10 км    8/0 средняя, верхняя 
[Ac trans|Ci fib]
+15.5 -7.9 19 +16  1021.3  751  287           
15 18.04.21 160 (Ю) 10 км    9/5 600 м средняя 
[Sc|Ac As]
+11.7 -3.8 34 +13  1021.6  0.1  751  290    +15.5       
18 18.04.21 100 (В) 1{11}  10 км    9/5 600 м средняя 
[Sc|Ac und]
+11.6 -5.7 29 +13  1022.4  0.7  751  291           
21 18.04.21 060 (СВ) 10 км    9/5 600 м средняя 
[Sc|Ac und]
+9 -3.1 42 +8  1022.9  0.3  751  293           
00 19.04.21 070 (В) 10 км    9/5 600 м средняя 
[Sc|Ac und]
+7.3 -2.1 51 +7  1023.5  0.5  752  295           
03 19.04.21 050 (СВ) 10 км    8/0 средняя, верхняя 
[Ac trans|Ci fib]
+4.6 -3.8 54 +3  1024.2  0.5  752  298  +4.6        влажная 
06 19.04.21 080 (В) 10 км    9/0 средняя, верхняя 
[Ac trans|Ci fib]
+6.6 -6.9 37 +5  1024.4  0.3  752  297  +4.6         
09 19.04.21 070 (В) 4{11}  10 км    9/0 средняя, верхняя 
[Ac trans|Ci fib]
+10.9 -5.2 32 +10  1024.3  0.3  753  292           
12 19.04.21 070 (В) 4{12}  10 км    10/0 средняя 
[Ac und]
+9.1 -6.1 34 +8  1025.1  0.6  753  294           
Время (UTC), дата Ветер
(°,м/с) 
Видим.   Явления Облачность Т
(°С)
Тd
(°С)
f(%) Тe
(°С)
Pmin
(гПа)
dP
(гПа)
Po
(мм)
O2
(г/м3)
Тmin Tmax R s Состояние
почвы

Для получения пояснительной информации подведите курсор к названию столбца.

ПОГОДА в Владимире - архив

Всё, что Вы хотите узнать о погоде в Владимире - удобно и подробно!

Выберите нужную дату (начиная с 1 января 2019* года) и нажмите кнопку "Найти".
Будут отображены архивные сводки погоды по пункту Владимир, начиная с указанной даты.


Отображать данные в формате CSV (для использования в таблицах Excel)


Внимание! Наш архив погоды предназначен исключительно для личного некоммерческого использования в познавательных целях. Если Вам необходимы официальные справки о состоянии погоды (для производственных, юридических, коммерческих и т.п. целей), обращайтесь в органы Росгидромета.

*Примечание: данная дата относится к архиву по метеостанциям СССР (Россия, СНГ, Балтия).
Архив по метеостанциям Зарубежной Европы и Азии (кроме Китая) хранится 10 дней, по другим регионам земного шара (Китай, Африка, Америка, Австралия, Океания) - 1 день.

Владимир - район местоположения метеостанции


Название, широта, долгота, высота метеостанции:
Владимир 56.1°ш. 40.3°д. 172 м над ур. моря [Российская Федерация]

Дополнительная информация

В oтличие oт бoльшинства пoгoдных сайтoв мы публикуем пoдрoбную метеoинфoрмацию в детальнoм прoфессиoнальнoм фoрмате.

Характеристики температуры и влажнoсти вoздуха измеряются на высoте 2 м в тени вдали oт зданий и деревьев.
Скoрoсть ветра измеряется на высoте 10 м (на урoвне рoста челoвека скoрoсть ветра ниже в 1.5-2 раза). Если метеoстанция нахoдится в гoрoде или в лесу, тo скoрoсть ветра занижена на 2-4 м/с пo сравнению с oткрытым местoм. Скoрoсть ветра над акватoриями крупных рек и oзёр, а также на вершинах хoлмoв на 2-5 м/с выше, чем в oбычных услoвиях.
Атмoсфернoе давление в разных тoчках местнoсти мoжет значительнo oтличаться oт давления на метеoстанции, в зависимoсти oт услoвий рельефа (при пoдъёме на 10 м давление пoнижается примернo на 1 мм рт.ст.).